Flag for Poland Weather past 2 weeks in Bielsko-Biała, Poland

Now
48 °F

Passing clouds.


Feels Like: 48 °F
Forecast: 36 / 53 °F
Wind: 1 mph from West

Location: Katowice

Current Time: Apr 19, 2015 at 11:45:23 PM

Latest Report: Apr 19, 2015 at 10:00 PM


Visibility: 13 mi

Pressure: 30.11 "Hg

Humidity: 53%

Dew point: 31 °F

Location of Bielsko-BiałaLocation

Historic Weather in Bielsko-Biała — Graph

°F

Bielsko-Biała temperature yesterday

Maximum temperature yesterday: 46 °F (at 12:00 AM)
Minimum temperature yesterday: 35 °F (at 6:00 AM)
Average temperature yesterday: 41 °F

Past Weeks' High & Low Weather Summary

 TemperatureHumidityPressure
High68 °F (Apr 11, 3:00 PM)97% (Apr 5, 3:00 AM)30.53 "Hg (Apr 5, 3:00 AM)
Low28 °F (Apr 6, 4:00 AM)23% (Apr 9, 3:00 PM)29.84 "Hg (Apr 17, 6:00 PM)
Average47 °F60%30.19 "Hg
* Reported Apr 4 10:00 PM — Apr 19 10:00 PM, Bielsko-Biała, Weather by CustomWeather, © 2015

Note: Actual official high and low records may vary slightly from our data, if they occured in-between our weather recording intervals... More about our weather records

Advertising

Bielsko-Biała weather history for previous 24 hours

 ConditionsComfort  
Time TempWeatherWind HumidityBarometerVisibility
10:00 PM
Sun, Apr 19
48 °FPassing clouds.1 mph53%30.11 "Hg12 mi
9:00 PM50 °FPassing clouds.2 mph47%30.11 "Hg12 mi
8:00 PM51 °FOvercast.2 mph39%30.10 "Hg12 mi
7:00 PM51 °FOvercast.2 mph38%30.09 "Hg19 mi
6:00 PM52 °FOvercast.5 mph36%30.09 "Hg31 mi
5:00 PM52 °FPartly sunny.5 mph38%30.09 "Hg19 mi
4:00 PM52 °FOvercast.3 mph38%30.11 "Hg19 mi
3:00 PM51 °FPartly sunny.3 mph42%30.13 "Hg19 mi
2:00 PM49 °FOvercast.2 mph44%30.16 "Hg19 mi
1:00 PM48 °FOvercast.3 mph44%30.15 "Hg19 mi
12:00 PM47 °FOvercast.2 mph46%30.17 "Hg19 mi
11:00 AM47 °FPartly sunny.2 mph47%30.17 "Hg19 mi
10:00 AM46 °FPartly sunny.2 mph51%30.18 "Hg19 mi
9:00 AM42 °FPassing clouds.2 mph64%30.20 "Hg12 mi
8:00 AM38 °FPartly sunny.2 mph79%30.21 "Hg9 mi
7:00 AM36 °FScattered clouds.2 mph87%30.21 "Hg6 mi
6:00 AM35 °FPassing clouds.1 mph91%30.19 "Hg6 mi
5:00 AM36 °FPassing clouds.2 mph91%30.18 "Hg6 mi
4:00 AM36 °FOvercast.2 mph89%30.18 "Hg6 mi
3:00 AM37 °FPassing clouds.3 mph88%30.19 "Hg6 mi
2:00 AM38 °FOvercast.2 mph86%30.20 "Hg9 mi
1:00 AM38 °FOvercast.1 mph84%30.20 "Hg9 mi
12:00 AM39 °FSprinkles. Overcast.2 mph82%30.20 "Hg9 mi
11:00 PM
Sat, Apr 18
38 °FSprinkles. Overcast.2 mph82%30.20 "Hg6 mi
Weather by CustomWeather, © 2015

See weather overviewHow to use our weather pages